Regional Weather Roundup
Issued by NWS

Home | Current Version | Previous Version | Text Only | Print | Product List | Glossary On
Versions: 1 2 3 4 5 6 7 8 9 10 11 12 13 14 15 16 17 18 19 20 21 22 23 24 25 26 27 28 29 30 31 32 33 34 35 36 37 38 39 40 41 42 43 44 45 46 47 48 49 50
000
ASUS45 KABQ 161710
RWRNM
NEW MEXICO REGIONAL WEATHER ROUNDUP
NATIONAL WEATHER SERVICE ALBUQUERQUE NM
1000 AM MST MON JAN 16 2017

NOTE: "FAIR" MEANS FEW OR NO CLOUDS BELOW 12,000 FEET AGL WITH NO
       SIGNIFICANT WEATHER OR OBSTRUCTIONS TO VISION.

      THIS PRODUCT IS RELEASED AS TWO VERSIONS.  ONE VERSION NEAR
      THE TOP OF THE HOUR CONTAINING PRELIMINARY DATA FROM ALBUQUERQUE
      AND OTHER STATIONS.  A FINAL VERSION WITH ADDITIONAL DATA IS
      ISSUED ABOUT 10 MINUTES AFTER THE HOUR.

NMZ501-503-504-510>518-161800-
NORTHWEST PLATEAU/NORTHCENTRAL MOUNTAINS

CITY           SKY/WX    TMP DP  RH WIND       PRES   REMARKS
FARMINGTON     PTSUNNY   36  30  79 W16       29.96R WCI  26
LOS ALAMOS     CLOUDY    33  33 100 CALM      29.98R
SANTA FE       CLOUDY    35  35 100 SW5       29.96R FOG     WCI  31
TAOS           CLOUDY    32  25  74 CALM      29.97R
ANGEL FIRE     LGT SNOW  32  28  87 CALM      29.97R

$$
NMZ402-403-502-505>509-161800-
WESTCENTRAL MOUNTAINS/SOUTHWEST MOUNTAINS

CITY           SKY/WX    TMP DP  RH WIND       PRES   REMARKS
GALLUP         CLOUDY    37  31  78 SW9       30.01R WCI  30
GRANTS         CLOUDY    39  31  73 CALM      30.01R
SILVER CITY    FAIR      41  36  80 NW13      30.05R

$$
NMZ407-409-411-412-161800-
SOUTHERN DESERTS

CITY           SKY/WX    TMP DP  RH WIND       PRES   REMARKS
DEMING         FAIR      44  39  82 SW9       30.05R
LAS CRUCES     FAIR      43  38  81 SW8       30.05S
HOLLOMAN AFB   FAIR      45  39  82 SE13      30.07R
ALAMOGORDO     FAIR      46  39  76 S13       30.05R
T OR C         PTSUNNY   38  36  92 SE9       30.02R WCI  31

$$
NMZ519>523-161800-
CENTRAL VALLEYS/CENTRAL HIGHLANDS

CITY           SKY/WX    TMP DP  RH WIND       PRES   REMARKS
ALBUQUERQUE    PTSUNNY   37  35  92 S5        30.00R WCI  33
DOUBLE EAGLE   PTSUNNY   36  36 100 CALM      30.00R
MORIARTY ARPT  FAIR      35  32  88 S5        29.99R WCI  31
CLINES CORNERS CLOUDY    33  30  88 W10       29.98R WCI  25
BELEN          PTSUNNY   41  37  86 SE6       30.00R
SOCORRO        CLOUDY    36  36  99 S7        30.02R WCI  30

$$
NMZ524>526-539-540-161800-
SOUTHCENTRAL MOUNTAINS

CITY           SKY/WX    TMP DP  RH WIND       PRES   REMARKS
RUIDOSO        FAIR      37  28  70 NW10      30.02R WCI  30

$$
NMZ527>531-161800-
NORTHEAST HIGHLANDS/NORTHEAST PLAINS

CITY           SKY/WX    TMP DP  RH WIND       PRES   REMARKS
LAS VEGAS      FOG       26  26 100 NE5       29.97R VSB 1/4 WCI  20
RATON          LGT SNOW  35  29  78 NW6       29.96R WCI  30
CLAYTON        LGT SNOW  33  33 100 NW9       29.97R FOG     WCI  25

$$
NMZ532>537-161800-
EASTCENTRAL PLAINS

CITY           SKY/WX    TMP DP  RH WIND       PRES   REMARKS
TUCUMCARI      FAIR      37  34  89 S6        29.99R WCI  32
CANNON AFB     CLOUDY    38  38  99 NW9       29.99R WCI  31
CLOVIS AIRPORT CLOUDY    39  36  87 NW9       29.99R WCI  33

$$
NMZ028-029-538-161800-
SOUTHEAST PLAINS

CITY           SKY/WX    TMP DP  RH WIND       PRES   REMARKS
ROSWELL        FOG       37  36  96 S6        30.01R VSB 1/2 WCI  32
ARTESIA        FOG       37  37 100 CALM      30.01S VSB 1/4
CARLSBAD       FAIR      47  43  86 E6        30.00R
HOBBS          SUNNY     48  45  87 W10       30.02R


$$



USA.gov is the U.S. government's official web portal to all federal, state and local government web resources and services.